Wind_Speed
12 11 10 10 11 9 5 4 3 3 3 3 3 3 3 3 3 4 4 4 4 5 5 4 2 1 1 1 1 1 2 2 1 1 2 3 3 3 3 3 3 3 4 3 3 3 3 2 2
12 11 10 11 11 6 4 4 3 3 3 2 3 2 3 3 3 3 4 4 4 5 5 4 3 2 1 1 1 0 0 1 2 2 2 2 3 3 3 3 3 3 3 3 2 3 2 2 2
13 11 12 12 8 5 5 5 3 3 3 3 2 2 2 3 4 4 4 4 4 4 5 5 4 3 2 1 1 0 1 1 1 2 2 2 3 3 3 3 3 3 3 2 2 1 1 2 2
14 14 13 10 7 6 5 4 3 3 3 3 2 3 3 3 4 4 4 4 5 4 5 5 4 4 3 2 1 1 1 1 1 1 1 2 2 3 3 3 3 3 2 1 1 1 2 2 3
14 15 11 8 7 6 5 5 4 4 4 4 3 4 4 4 4 4 5 5 5 5 5 5 5 4 4 3 2 1 0 0 1 1 1 1 2 2 3 2 2 1 1 1 2 2 2 2 2
14 12 9 8 6 6 6 5 5 5 4 4 4 4 4 5 4 4 4 5 4 5 5 5 5 5 4 3 3 1 1 1 1 1 1 0 1 1 1 1 1 1 1 1 1 1 1 1 2
12 10 8 7 6 5 5 5 5 4 4 4 5 5 5 5 5 5 5 5 5 5 6 6 6 5 4 3 3 3 2 2 2 2 1 1 0 0 0 1 1 1 2 2 1 0 1 1 2
9 8 7 6 5 5 6 6 5 5 6 6 6 6 6 6 6 6 6 6 6 6 6 6 5 4 4 3 3 4 3 2 3 3 2 2 1 0 0 0 0 1 1 1 0 1 1 1 1
7 6 6 6 5 5 6 6 6 6 7 7 7 6 6 6 6 6 6 6 7 6 6 5 5 4 4 3 3 3 4 4 4 3 2 2 1 1 1 1 1 1 1 2 1 1 1 1 1
4 4 5 5 5 6 6 6 6 6 6 8 8 7 7 6 6 6 6 6 7 6 6 5 4 5 5 5 4 4 5 5 4 4 4 2 1 2 2 2 2 1 1 2 2 1 1 1 1
5 5 4 4 5 5 5 5 6 5 7 8 9 9 8 8 7 7 7 7 7 7 7 7 6 5 6 5 5 5 5 5 5 5 5 5 4 3 4 3 2 2 2 2 2 2 1 0 1
5 5 3 3 4 4 4 5 6 7 8 8 8 9 9 9 8 7 7 7 7 7 7 7 6 5 6 5 6 6 6 6 5 5 5 5 5 4 4 4 4 3 3 3 2 3 2 1 1
4 5 4 4 4 4 5 5 5 6 7 8 9 9 9 8 7 8 8 7 8 8 7 7 7 6 6 6 6 6 6 6 5 5 5 5 5 5 5 5 5 4 4 4 3 3 3 3 2
2 3 3 4 4 4 4 5 5 5 7 7 9 9 9 8 8 8 8 8 8 7 7 7 7 6 6 7 7 7 6 6 5 5 5 5 5 5 5 5 5 5 4 4 4 4 4 4 4
2 3 3 3 5 5 5 5 5 6 7 8 8 9 9 9 8 8 8 8 8 7 7 6 6 6 6 7 7 7 6 6 6 6 5 5 5 5 5 5 6 6 5 5 5 6 6 5 5
1 4 6 5 4 5 5 6 7 7 7 8 8 8 9 9 8 9 8 8 8 7 7 7 7 7 7 8 7 7 7 7 6 6 6 6 6 6 6 6 6 6 6 6 6 7 7 7 6
3 5 6 5 5 5 5 6 7 7 8 9 9 9 8 9 9 9 9 9 8 8 8 8 7 7 8 8 8 8 8 8 7 7 8 8 8 7 7 7 7 7 7 7 7 7 8 8 8
3 4 7 6 6 6 6 6 7 7 8 8 9 9 9 9 9 9 9 9 9 9 9 9 8 8 8 9 9 9 9 8 7 7 8 9 8 9 9 8 9 9 8 8 8 8 9 9 9
5 6 8 7 6 7 7 7 7 8 9 9 8 9 10 10 9 9 9 10 10 10 10 10 9 9 9 10 10 10 10 8 8 8 9 9 9 9 9 9 10 10 10 10 10 10 10 10 10
6 7 9 8 7 7 7 7 7 8 8 10 10 10 10 9 9 9 9 10 11 11 11 11 11 10 11 11 11 10 9 9 10 10 10 10 11 10 10 10 11 11 12 12 12 11 11 11 12
8 8 9 10 9 8 8 9 9 10 9 10 11 11 11 10 10 10 10 10 11 11 11 11 11 11 12 12 12 11 10 10 11 11 11 11 12 12 12 12 13 13 13 13 13 13 13 13 13
9 9 9 9 9 9 10 14 12 11 10 11 11 11 11 11 10 10 11 11 11 11 12 12 12 12 12 12 12 12 12 11 12 12 12 12 12 13 13 14 14 14 14 14 14 14 14 14 15
10 9 9 9 9 9 10 13 14 13 13 12 10 11 12 11 11 11 11 12 12 12 12 13 13 14 13 13 13 13 12 12 13 13 13 13 14 14 14 15 14 15 15 15 16 16 16 16 16
11 10 11 11 11 13 11 13 16 14 16 15 11 12 13 13 13 13 13 13 14 14 13 13 14 14 14 13 14 14 13 14 14 14 14 15 15 15 16 16 16 16 16 16 16 16 17 17 16
12 11 11 11 12 13 13 13 16 17 17 17 14 14 14 14 14 15 15 15 15 15 15 14 14 14 14 14 14 15 15 15 16 16 16 16 16 16 17 17 17 17 17 17 17 17 17 17 17
14 13 13 14 13 13 14 14 17 19 19 18 18 17 16 16 15 15 15 16 15 15 16 15 15 15 14 14 15 15 15 16 17 17 18 18 18 18 18 19 19 19 19 19 19 19 19 18 19
16 15 15 17 16 15 17 18 21 20 19 19 19 19 18 17 17 17 17 16 16 16 17 17 16 16 16 16 16 16 16 17 17 18 19 19 20 20 20 20 20 21 21 21 21 20 20 20 20
16 16 16 16 17 17 18 19 22 22 21 21 21 20 19 19 19 20 19 18 18 18 18 18 17 17 17 17 17 17 18 18 19 19 19 20 20 21 21 21 21 21 21 21 21 21 22 21 21
18 17 17 17 17 17 18 20 21 22 22 22 22 21 21 20 20 20 21 20 19 18 19 19 19 19 19 18 18 19 19 19 20 20 20 20 20 20 21 21 21 21 21 21 21 22 23 23 23
20 19 18 18 19 19 19 22 22 23 24 23 22 22 22 22 21 21 21 22 22 21 20 20 20 20 20 20 20 20 20 20 21 21 21 20 21 21 21 21 22 22 22 22 23 23 22 22 23
Wind_Direction
89 90 90 87 75 72 74 75 70 57 56 56 57 56 47 53 54 61 56 57 55 56 56 62 66 88 112 138 164 187 185 186 199 196 183 167 164 164 165 163 162 150 143 145 156 158 158 158 160
87 88 85 78 71 60 63 67 54 47 46 53 49 39 36 46 50 48 50 52 47 47 53 51 51 51 55 77 145 192 159 191 210 214 199 183 167 161 148 146 144 140 140 149 154 160 155 168 179
86 84 76 70 61 43 52 59 42 35 36 43 32 27 26 34 43 45 47 44 43 40 45 46 41 38 32 24 343 293 214 200 207 216 206 182 163 150 139 130 126 133 140 156 162 157 183 186 181
85 78 70 68 55 38 46 44 29 24 27 31 20 20 23 33 45 47 42 38 39 40 37 34 30 27 16 2 316 281 233 196 187 199 181 172 158 148 141 129 131 138 143 193 229 258 237 218 204
82 77 68 66 51 39 43 43 30 28 39 44 34 24 22 34 39 41 42 38 37 42 39 25 19 20 17 5 344 289 255 297 247 239 200 171 154 152 152 139 122 121 113 245 252 251 249 244 213
84 79 74 59 55 36 34 33 28 27 34 41 37 31 24 32 33 27 32 34 22 21 24 19 20 21 16 18 21 15 358 13 15 10 7 340 161 178 160 131 107 45 9 353 324 246 244 213 189
77 81 76 63 57 50 38 35 30 32 36 35 31 26 24 29 29 26 23 22 17 9 7 15 21 25 32 39 44 38 46 39 22 21 17 10 40 109 54 49 68 49 23 38 74 115 166 176 185
87 81 69 61 61 61 42 36 34 29 39 34 25 21 22 23 24 22 20 15 15 17 10 8 17 18 20 25 32 34 31 27 17 15 10 16 358 23 51 41 348 15 24 34 18 192 176 197 193
87 73 54 47 59 62 50 40 41 40 35 29 25 20 22 20 19 19 19 15 8 6 9 2 3 14 14 15 15 20 16 10 7 7 8 1 335 322 359 335 313 344 358 347 315 181 185 220 213
81 84 53 49 48 49 49 39 40 36 35 30 27 24 24 23 20 19 19 16 8 1 2 355 348 352 357 355 357 354 343 346 353 357 4 4 331 305 319 337 309 320 340 339 328 4 188 222 226
62 63 63 63 54 45 36 36 34 27 27 24 22 23 25 22 20 21 22 16 9 2 356 355 352 352 355 349 350 343 337 337 341 348 356 2 352 337 323 330 323 316 313 308 318 329 351 241 263
70 59 53 53 48 42 22 28 32 27 28 24 20 20 20 21 21 18 14 12 5 3 1 359 355 348 348 344 338 334 335 333 334 344 350 353 351 350 339 318 316 307 300 303 322 337 338 301 282
63 46 51 52 47 29 14 19 20 19 21 20 18 18 18 19 15 9 4 3 2 1 359 356 356 353 349 343 336 332 333 327 326 333 341 345 349 351 342 323 316 314 305 299 307 321 333 327 320
50 36 37 34 27 26 7 357 8 6 11 13 14 13 11 10 6 1 356 357 358 358 356 355 355 353 345 339 335 333 331 326 325 327 333 343 346 345 336 328 322 319 312 311 315 318 318 319 316
42 15 6 11 2 16 1 358 7 8 0 1 1 2 1 360 357 355 354 354 354 356 356 353 353 351 345 338 332 330 328 321 319 323 328 334 337 334 330 325 322 321 320 315 312 316 316 309 309
58 346 339 356 357 349 353 351 353 0 2 357 354 354 354 354 351 352 352 352 352 351 350 345 345 343 339 337 333 328 327 321 316 314 320 323 324 321 317 314 313 310 313 314 314 315 316 313 307
343 322 330 341 330 335 343 335 335 350 352 346 346 350 348 346 345 346 347 348 346 344 341 335 335 333 331 331 328 323 319 319 315 314 312 314 314 310 307 306 306 305 305 305 306 305 305 307 304
292 313 315 305 304 308 323 323 323 336 332 332 337 338 340 339 337 339 343 344 342 340 338 335 330 325 324 326 326 321 313 313 310 307 309 312 310 304 303 303 303 302 301 301 301 298 297 299 299
258 266 273 282 297 297 313 313 315 317 322 322 329 331 334 337 337 338 339 340 340 338 335 331 329 322 321 324 323 319 315 313 312 310 312 312 309 301 298 297 299 299 298 297 297 297 297 295 295
259 270 276 282 289 288 296 300 299 302 315 320 326 326 327 332 334 333 335 335 336 337 334 330 325 319 316 316 318 317 316 315 313 310 312 311 306 302 298 297 296 296 298 298 296 295 296 295 295
251 261 268 275 280 279 292 301 300 300 305 310 314 318 318 323 325 326 328 331 331 331 329 328 325 317 312 312 315 313 314 312 311 308 307 307 304 302 297 297 297 296 294 294 295 295 293 291 291
252 261 266 273 285 282 285 285 288 290 294 297 306 314 313 313 319 322 323 324 324 325 325 324 322 318 316 318 312 310 308 308 307 305 304 304 303 301 299 297 297 297 296 294 292 293 293 291 289
250 256 265 268 272 275 274 283 285 292 293 288 293 304 309 311 311 315 315 316 317 319 320 320 319 317 317 314 311 309 305 306 306 304 301 300 300 300 300 299 298 297 296 295 292 290 289 289 287
254 260 268 270 273 274 272 278 281 288 293 294 293 302 305 305 306 308 310 311 312 314 316 317 317 316 315 311 308 307 304 303 305 303 300 299 300 299 299 297 296 295 294 294 293 292 290 287 287
262 273 276 274 273 277 285 281 275 286 290 294 299 300 299 299 303 305 308 310 311 312 313 313 314 313 313 310 306 305 304 302 303 303 300 298 297 297 296 294 293 292 292 293 293 291 290 287 286
254 255 264 271 272 269 271 267 273 281 286 290 292 294 299 303 302 300 302 306 309 310 312 312 311 311 310 310 306 302 303 300 300 299 299 297 295 293 293 292 290 290 290 289 288 288 286 285 283
257 252 255 265 269 267 266 269 272 274 279 283 286 289 293 295 297 297 299 302 305 307 309 310 309 308 307 309 306 302 299 299 297 297 298 298 294 291 291 292 292 290 289 287 285 284 283 282 281
265 257 255 255 263 268 271 271 275 280 280 286 291 290 291 292 292 294 296 300 301 302 305 307 307 306 308 308 305 302 300 300 298 298 299 298 294 291 291 290 289 288 288 287 286 284 282 280 279
262 263 260 254 252 263 271 276 280 280 278 281 286 288 289 290 292 293 293 295 299 300 302 303 302 303 303 304 304 301 299 297 297 297 298 297 295 292 291 290 288 288 287 286 286 284 283 281 279
261 260 262 265 261 259 264 267 271 277 280 280 284 285 285 287 288 290 292 294 296 296 296 298 297 298 299 299 301 302 300 297 297 297 299 299 296 293 293 290 288 287 287 286 286 284 284 283 280
Height
5883 5883 5883 5883 5883 5884 5883 5883 5883 5882 5882 5881 5881 5881 5880 5880 5881 5882 5879 5877 5877 5876 5876 5876 5875 5875 5875 5875 5875 5875 5875 5875 5876 5876 5876 5876 5877 5877 5877 5877 5877 5877 5878 5878 5879 5879 5880 5881 5882
5886 5886 5885 5885 5885 5885 5885 5885 5884 5884 5883 5882 5882 5882 5881 5881 5881 5880 5879 5879 5878 5878 5877 5877 5877 5877 5876 5876 5876 5876 5876 5876 5876 5876 5877 5877 5877 5877 5878 5877 5877 5877 5878 5878 5878 5879 5880 5881 5881
5888 5888 5887 5887 5888 5888 5887 5886 5886 5885 5884 5884 5883 5883 5883 5883 5882 5881 5880 5880 5879 5879 5878 5878 5878 5878 5877 5877 5877 5877 5877 5877 5877 5877 5877 5877 5877 5878 5878 5878 5878 5878 5878 5878 5878 5878 5879 5880 5881
5890 5889 5889 5890 5890 5890 5889 5888 5887 5886 5886 5885 5885 5885 5884 5883 5883 5882 5882 5881 5881 5880 5880 5879 5879 5879 5878 5878 5878 5878 5877 5877 5877 5877 5877 5877 5878 5878 5878 5878 5878 5878 5878 5878 5878 5878 5878 5879 5879
5891 5890 5892 5892 5892 5892 5891 5890 5889 5888 5887 5887 5887 5886 5885 5885 5884 5883 5883 5882 5882 5881 5881 5880 5880 5880 5879 5879 5878 5878 5878 5878 5878 5878 5878 5878 5878 5878 5878 5878 5878 5878 5878 5878 5878 5878 5878 5879 5879
5892 5892 5894 5894 5894 5894 5893 5891 5890 5890 5889 5888 5888 5887 5886 5886 5885 5885 5884 5884 5883 5882 5882 5881 5881 5880 5880 5879 5879 5879 5879 5879 5878 5878 5878 5879 5878 5879 5879 5879 5878 5879 5878 5877 5877 5877 5878 5878 5879
5895 5895 5895 5896 5896 5896 5895 5893 5892 5891 5891 5890 5889 5889 5888 5887 5887 5886 5885 5885 5884 5883 5882 5882 5881 5881 5880 5880 5880 5880 5879 5879 5879 5879 5879 5879 5879 5879 5879 5879 5879 5879 5878 5877 5877 5877 5878 5878 5879
5898 5899 5898 5897 5898 5897 5897 5895 5894 5893 5892 5892 5891 5890 5889 5889 5888 5887 5886 5886 5885 5884 5883 5883 5882 5882 5881 5881 5881 5880 5880 5880 5880 5880 5880 5879 5880 5880 5880 5879 5879 5879 5878 5878 5878 5878 5878 5879 5879
5900 5902 5899 5899 5899 5898 5898 5897 5896 5895 5894 5893 5893 5892 5891 5890 5889 5889 5888 5887 5886 5885 5885 5883 5883 5882 5882 5882 5881 5881 5881 5881 5880 5881 5880 5880 5880 5880 5880 5880 5879 5879 5879 5879 5879 5879 5879 5879 5879
5902 5903 5902 5901 5901 5899 5899 5899 5898 5897 5896 5895 5894 5893 5892 5891 5890 5890 5889 5888 5887 5886 5885 5885 5884 5883 5883 5882 5882 5882 5882 5882 5881 5881 5881 5881 5881 5881 5880 5880 5880 5880 5880 5879 5879 5879 5879 5879 5880
5904 5904 5904 5903 5903 5902 5901 5900 5899 5899 5897 5896 5895 5894 5893 5892 5891 5891 5890 5889 5888 5887 5886 5885 5885 5884 5884 5883 5882 5883 5883 5882 5882 5882 5881 5881 5881 5881 5881 5880 5880 5880 5880 5880 5880 5880 5879 5880 5880
5905 5905 5905 5905 5904 5904 5903 5901 5901 5900 5899 5898 5897 5895 5894 5893 5892 5892 5891 5890 5889 5888 5887 5886 5885 5885 5884 5884 5883 5883 5883 5882 5882 5882 5881 5881 5881 5881 5881 5881 5881 5880 5880 5880 5880 5880 5880 5879 5880
5907 5906 5906 5906 5905 5905 5904 5903 5902 5901 5901 5899 5898 5897 5895 5895 5894 5893 5891 5890 5889 5888 5887 5887 5886 5885 5885 5884 5884 5883 5883 5883 5883 5882 5882 5882 5881 5881 5881 5881 5881 5879 5880 5880 5880 5880 5880 5880 5880
5908 5908 5907 5907 5906 5906 5905 5904 5903 5902 5901 5900 5899 5898 5897 5896 5894 5893 5892 5891 5890 5889 5888 5887 5886 5886 5885 5884 5884 5883 5883 5883 5882 5882 5882 5882 5881 5881 5881 5880 5880 5880 5880 5880 5880 5880 5880 5880 5880
5908 5909 5908 5908 5907 5907 5906 5905 5903 5903 5902 5901 5900 5899 5898 5896 5895 5894 5892 5891 5890 5889 5888 5887 5886 5886 5885 5884 5883 5883 5883 5882 5882 5882 5882 5881 5881 5881 5880 5880 5880 5879 5879 5879 5879 5879 5879 5879 5879
5908 5909 5909 5908 5908 5908 5909 5906 5904 5903 5903 5902 5901 5900 5898 5897 5896 5894 5893 5891 5890 5889 5888 5887 5886 5885 5885 5884 5883 5882 5882 5882 5882 5881 5881 5881 5880 5880 5880 5880 5879 5879 5879 5879 5879 5878 5878 5878 5878
5908 5909 5909 5909 5909 5908 5908 5907 5905 5904 5903 5903 5901 5900 5899 5897 5896 5895 5893 5892 5890 5889 5888 5887 5886 5885 5884 5883 5882 5882 5881 5881 5881 5880 5880 5880 5880 5879 5879 5879 5879 5878 5878 5878 5878 5877 5877 5877 5877
5911 5911 5912 5911 5910 5909 5908 5907 5906 5905 5904 5902 5901 5900 5898 5897 5896 5894 5893 5892 5890 5889 5887 5886 5885 5884 5883 5883 5881 5881 5880 5880 5880 5880 5879 5879 5879 5878 5878 5878 5878 5877 5877 5877 5876 5876 5876 5875 5875
5911 5911 5911 5911 5909 5909 5909 5907 5906 5905 5904 5902 5900 5899 5898 5897 5895 5894 5893 5891 5890 5889 5887 5886 5885 5884 5883 5882 5881 5880 5879 5879 5879 5878 5878 5877 5877 5877 5877 5876 5876 5876 5875 5875 5875 5874 5874 5874 5873
5910 5911 5910 5910 5909 5908 5908 5907 5906 5904 5904 5902 5900 5899 5897 5896 5895 5894 5892 5891 5890 5888 5887 5885 5884 5883 5882 5881 5880 5879 5878 5878 5877 5877 5876 5876 5876 5875 5875 5875 5874 5874 5873 5873 5872 5872 5872 5871 5871
5909 5910 5909 5909 5908 5907 5906 5905 5904 5903 5903 5901 5900 5898 5897 5895 5894 5893 5892 5890 5889 5887 5886 5884 5883 5882 5880 5879 5879 5878 5877 5876 5876 5875 5875 5874 5874 5873 5873 5872 5872 5871 5871 5870 5870 5869 5869 5869 5868
5908 5908 5907 5907 5907 5906 5907 5904 5903 5902 5901 5900 5899 5898 5896 5894 5893 5892 5890 5889 5887 5886 5884 5883 5882 5880 5879 5878 5877 5876 5875 5875 5874 5874 5873 5872 5871 5871 5870 5870 5869 5869 5868 5867 5867 5866 5866 5866 5865
5905 5905 5905 5905 5904 5904 5905 5903 5902 5899 5899 5898 5896 5896 5894 5893 5891 5890 5889 5888 5886 5884 5883 5881 5880 5878 5877 5876 5875 5874 5873 5873 5872 5871 5871 5870 5869 5868 5867 5866 5866 5865 5865 5864 5864 5863 5862 5861 5861
5902 5902 5902 5902 5902 5903 5903 5902 5900 5898 5897 5895 5893 5893 5893 5891 5890 5889 5887 5886 5884 5882 5881 5879 5878 5876 5875 5874 5873 5872 5871 5870 5869 5869 5868 5867 5866 5865 5864 5863 5862 5862 5861 5860 5860 5859 5858 5857 5857
5900 5901 5901 5901 5901 5901 5901 5900 5898 5896 5895 5893 5892 5891 5890 5889 5888 5886 5885 5884 5882 5881 5879 5877 5876 5874 5873 5871 5870 5869 5868 5867 5866 5865 5865 5864 5863 5862 5860 5859 5858 5858 5857 5856 5855 5855 5854 5853 5853
5898 5899 5900 5900 5900 5900 5898 5897 5896 5893 5892 5892 5890 5889 5888 5886 5885 5884 5883 5881 5880 5879 5877 5875 5873 5872 5870 5869 5867 5866 5865 5864 5863 5862 5861 5860 5859 5857 5856 5855 5854 5853 5852 5852 5851 5850 5849 5849 5848
5893 5895 5897 5897 5896 5896 5895 5893 5891 5888 5888 5888 5887 5885 5885 5884 5882 5880 5879 5878 5877 5876 5874 5872 5871 5869 5867 5866 5864 5863 5861 5860 5859 5858 5856 5855 5854 5853 5851 5850 5849 5848 5847 5846 5846 5845 5844 5844 5843
5890 5890 5892 5893 5892 5892 5892 5889 5887 5885 5884 5882 5881 5880 5880 5879 5878 5876 5875 5874 5873 5872 5871 5869 5867 5866 5864 5862 5861 5859 5858 5856 5855 5853 5852 5851 5849 5848 5846 5845 5844 5843 5842 5841 5840 5839 5838 5838 5837
5886 5886 5886 5887 5888 5888 5888 5886 5883 5881 5880 5879 5877 5876 5875 5875 5873 5872 5870 5870 5867 5867 5866 5865 5863 5862 5860 5859 5857 5855 5853 5851 5850 5848 5847 5845 5844 5842 5841 5840 5838 5837 5836 5835 5834 5833 5832 5831 5831
5882 5882 5882 5883 5882 5883 5883 5882 5877 5876 5875 5873 5872 5871 5870 5869 5868 5867 5866 5865 5864 5863 5862 5860 5859 5857 5856 5854 5852 5851 5849 5847 5845 5843 5841 5840 5839 5837 5835 5834 5833 5831 5830 5829 5828 5827 5826 5825 5824